Regional Weather Roundup
Issued by NWS Newport/Morehead, NC

Current Version | Previous Version | Text Only | Print | Product List | Glossary On
Versions: 1 2 3 4 5 6 7 8 9 10 11 12 13 14 15 16 17 18 19 20 21 22 23 24 25 26 27 28 29 30 31 32 33 34 35 36 37 38 39 40 41 42 43 44 45 46 47 48 49 50
000
ASUS42 KMHX 300613
RWRMHX
WEATHER ROUNDUP FOR EASTERN NORTH CAROLINA
NATIONAL WEATHER SERVICE NEWPORT/MOREHEAD CITY NC
200 AM EDT THU MAR 30 2017

NOTE: "FAIR" INDICATES FEW OR NO CLOUDS BELOW 12,000 FEET
WITH NO SIGNIFICANT WEATHER AND/OR OBSTRUCTIONS TO VISIBILITY

NCZ015>017-031-032-045>047-102-103-300700-
NORTH COAST

CITY           SKY/WX    TMP DP  RH WIND       PRES   REMARKS
EDENTON        CLEAR     47  45  91 CALM      30.17R
ELIZABETH CITY CLEAR     47  45  93 E5        30.16F
KITTY HAWK     NOT AVBL
MANTEO         CLEAR     48  46  90 E5        30.15F

$$

NCZ045>047-081-094-103-104-300700-
CENTRAL COAST

CITY           SKY/WX    TMP DP  RH WIND       PRES   REMARKS
FRISCO         CLEAR     53  46  77 NE9       30.14F

$$

NCZ095-097-098-100-101-300700-
SOUTHERN COAST

CITY           SKY/WX    TMP DP  RH WIND       PRES   REMARKS
BEAUFORT       CLEAR     54  50  86 NE6       30.13F
CEDAR ISLAND   NOT AVBL
JACKSONVILLE   CLEAR     55  49  80 E12       30.13
PINEY ISLAND   CLEAR    N/A N/A N/A E10       30.13F
WILMINGTON     CLEAR     59  55  87 E8        30.12S


$$

NCZ011>013-027>030-043-044-078>080-089-090>093-098-300700-
COASTAL PLAIN

CITY           SKY/WX    TMP DP  RH WIND       PRES   REMARKS
AHOSKIE          N/A     45  44  97 CALM      30.18R
CLINTON        CLEAR     55  54  96 CALM      30.14R
ELIZABETHTOWN  CLEAR     56  55  95 E3        30.12S
GOLDSBORO      CLEAR     51  51 100 E5        30.13S
GREENVILLE     CLEAR     50  46  87 E3        30.16F
HAVELOCK       NOT AVBL
KENANSVILLE    CLEAR     52  50  93 CALM      30.14S
KINSTON        PTCLDY    52  50  94 CALM      30.15F
NEW BERN       CLEAR     52  49  89 E7        30.15F
RICHLANDS      NOT AVBL
ROCKY MOUNT    CLEAR     52  50  93 CALM      30.15S
WASHINGTON     CLEAR     47  45  95 CALM      30.16S
WHITEVILLE     CLEAR     59  55  88 E6        30.10F

$$

AMZ130-135-150-152-154-156-158-170-250-252-270-ANZ085-086-088-633-658-670-300700-
MARINE OBSERVATIONS

STATION/POSITION TIME  TEMP    WIND        PRES    WAVE   SWELL
                       AIR SEA DIR/SP/G            HT/PER HT/PER
                 (UTC) (F)     (DEG/KT/KT) (MB)    (FT/S) (FT/S)
CHESAPEAKE LIGHT NOT AVBL
64 E VA BEACH    0550   51 51   60/  4/  6 1020.8    5/ 8   5/ 8
DUCK             0548   49 50   60/  6/  6 1020.4
2 E DUCK         0600      51                N/A     4/ 8   2/11
OREGON INLET     0542   49 57   50/  3/  4 1021.0
13E OREGON INLT  0548      50                N/A     5/10   5/10
HATTERAS CG      0548   54 61   60/  9/ 13 1020.1
DIAMOND BUOY     0550   61 73   50/ 16/ 21 1020.1    7/ 9   5/ 9
CAPE LOOKOUT     0600   62      70/ 18/ 20 1019.6
BEAUFORT LAB     0548   54 62   30/  3/  5 1019.3
30 SE NEW RVR IN 0508   62      80/ 14/ 19 1020.3
30 SE NEW RVR IN 0543      63                N/A     6/10   2/11
27 SE WRIGHTSVLE 0508   65 73  100/ 16/ 23 1019.0
5 SE WRIGHTSVLE  0508   60 59  100/ 14/ 19 1019.7
225 S CAPE HAT   0550   69 72   60/ 14/ 17 1018.4    6/10   3/10
41 SE CHARLESTON 0550   70 69   80/ 16/ 19 1017.2    6/10   3/10

$$




USA.gov is the U.S. government's official web portal to all federal, state and local government web resources and services.